Regional Weather Roundup
Issued by NWS

Home | Current Version | Previous Version | Graphics & Text | Print | Product List | Glossary On
Versions: 1 2 3 4 5 6 7 8 9 10 11 12 13 14 15 16 17 18 19 20 21 22 23 24 25 26 27 28 29 30 31 32 33 34 35 36 37 38 39 40 41 42 43 44 45 46 47 48 49 50
318
ASUS45 KCYS 281110
RWRWY

WYOMING REGIONAL WEATHER ROUNDUP
NATIONAL WEATHER SERVICE CHEYENNE WY
500 AM MDT TUE MAR 28 2017

NOTE:  "FAIR" INDICATES FEW OR NO CLOUDS BELOW 12,000 FEET
WITH NO SIGNIFICANT WEATHER AND/OR OBSTRUCTIONS TO VISIBILITY.

WYZ001-281200-
YELLOWSTONE NATIONAL PARK

CITY           SKY/WX    TMP DP  RH WIND       PRES   REMARKS
LK YELLOWSTONE   N/A     25  24  96 CALM      30.07R
W YELLOWSTONE  NOT AVBL

$$
WYZ002>013-054>058-071-098>099-281200-
NORTHERN WYOMING

CITY           SKY/WX    TMP DP  RH WIND       PRES   REMARKS
JACKSON        CLOUDY    34  30  86 N7        30.04R WCI  28
CODY           LGT RAIN  35  33  92 NE10      30.03S WCI  27
GREYBULL       MOCLDY    41  32  70 NW18      29.98R
WORLAND        CLOUDY    40  36  86 N14G22    29.98R WCI  32
SHERIDAN       CLOUDY    42  38  85 NW17      29.99R
BUFFALO        LGT RAIN  41  36  82 NW14G25   29.98R
GILLETTE       CLOUDY    40  37  89 CALM      29.94R
HULETT         FAIR      39  34  81 CALM      29.95S
NEWCASTLE      FAIR      41  34  75 NW6       29.95R

$$
WYZ014>020-022>026-101>103-281200-
CENTRAL WYOMING

CITY           SKY/WX    TMP DP  RH WIND       PRES   REMARKS
BIG PINEY      CLOUDY    32  26  78 N10       29.97R WCI  24
PINEDALE       CLOUDY    32  27  80 NW9       29.97S WCI  24
DUBOIS         CLOUDY    32  28  86 CALM      29.98R
LANDER         LGT RAIN  36  35  96 W9        29.95R WCI  29
RIVERTON       LGT RAIN  37  36  96 NW15      29.96R WCI  28
CASPER         CLOUDY    41  36  82 NE7       29.91R
DOUGLAS        CLOUDY    39  38  96 SW3       29.92S

$$
WYZ021-027>030-104>119-281200-
SOUTHERN WYOMING

CITY           SKY/WX    TMP DP  RH WIND       PRES   REMARKS
EVANSTON       CLOUDY    31  28  89 NW20      30.00R WCI  19
KEMMERER         N/A     30  28  93 W5        29.98R WCI  25
FORT BRIDGER   LGT SNOW  32  32 100 W12       30.01R WCI  23
ROCK SPRINGS   CLOUDY    35  32  88 NW14      29.93R WCI  26
DIXON            N/A     36  34  94 CALM      29.89R
RAWLINS        CLOUDY    36  33  89 E8        29.89S WCI  30
SARATOGA       CLOUDY    34  34 100 NW3       29.88F
LARAMIE        CLOUDY    35  34  96 NE7       29.86S WCI  29
CHEYENNE       CLOUDY    38  36  92 N15       29.86S WCI  29
TORRINGTON     CLOUDY    45  44  97 NE10      29.87S
PINE BLUFFS    CLOUDY    41  41 100 NE8       29.86R

$$




USA.gov is the U.S. government's official web portal to all federal, state and local government web resources and services.